| time (UTC) | temp F | wind direction | speed MPH | gust MPH | rain 1hr in | rain 24hr in | rain mn in | humidity % | barometer mb |
| 20260504020547 | 56 | 40 | 5.0 | 6.0 | 0.00 | 0.00 | 0.00 | 62 | |
| 20260504020046 | 56 | 0 | 3.0 | 4.0 | 0.00 | 0.00 | 0.00 | 62 | |
| 20260504015545 | 55 | 261 | 2.0 | 4.0 | 0.00 | 0.00 | 0.00 | 62 | |
| 20260504015045 | 55 | 213 | 1.0 | 4.0 | 0.00 | 0.00 | 0.00 | 62 | |
| 20260504014544 | 56 | 315 | 3.0 | 4.0 | 0.00 | 0.00 | 0.00 | 66 | |
| 20260504014043 | 56 | 315 | 4.0 | 4.0 | 0.00 | 0.00 | 0.00 | 66 | |
| 20260504013542 | 56 | 315 | 4.0 | 5.0 | 0.00 | 0.00 | 0.00 | 65 | |
| 20260504013041 | 55 | 315 | 5.0 | 5.0 | 0.00 | 0.00 | 0.00 | 65 | |
| 20260504012540 | 55 | 315 | 3.0 | 4.0 | 0.00 | 0.00 | 0.00 | 66 | |
| 20260504012039 | 55 | 315 | 3.0 | 4.0 | 0.00 | 0.00 | 0.00 | 67 | |
| 20260504011537 | 55 | 285 | 3.0 | 4.0 | 0.00 | 0.00 | 0.00 | 68 | |
| 20260504011036 | 55 | 239 | 3.0 | 4.0 | 0.00 | 0.00 | 0.00 | 67 | |
| 20260504010536 | 55 | 270 | 4.0 | 5.0 | 0.00 | 0.00 | 0.00 | 67 | |
| 20260504010035 | 55 | 228 | 3.0 | 5.0 | 0.00 | 0.00 | 0.00 | 66 | |
| 20260504005534 | 56 | 231 | 4.0 | 5.0 | 0.00 | 0.00 | 0.00 | 64 | |
| 20260504005033 | 56 | 233 | 4.0 | 6.0 | 0.00 | 0.00 | 0.00 | 63 | |
| 20260504004532 | 56 | 225 | 5.0 | 6.0 | 0.00 | 0.00 | 0.00 | 62 | |
| 20260504004031 | 56 | 227 | 4.0 | 6.0 | 0.00 | 0.00 | 0.00 | 60 | |
| 20260504003531 | 57 | 225 | 2.0 | 3.0 | 0.00 | 0.00 | 0.00 | 59 | |
| 20260504003030 | 57 | 252 | 2.0 | 3.0 | 0.00 | 0.00 | 0.00 | 56 | |
| 20260504002529 | 57 | 257 | 2.0 | 2.0 | 0.00 | 0.00 | 0.00 | 54 | |
| 20260504002028 | 57 | 225 | 1.0 | 2.0 | 0.00 | 0.00 | 0.00 | 50 | |
| 20260504001527 | 57 | 241 | 2.0 | 2.0 | 0.00 | 0.00 | 0.00 | 50 | |
| 20260504001027 | 57 | 269 | 1.0 | 3.0 | 0.00 | 0.00 | 0.00 | 53 | |
| 20260504000526 | 58 | 224 | 1.0 | 4.0 | 0.00 | 0.00 | 0.00 | 52 | |
| 20260504000025 | 58 | 225 | 3.0 | 4.0 | 0.00 | 0.00 | 0.00 | 50 | |
| 20260503235524 | 58 | 212 | 3.0 | 3.0 | 0.00 | 0.00 | 0.00 | 49 | |
| 20260503235023 | 58 | 159 | 2.0 | 3.0 | 0.00 | 0.00 | 0.00 | 46 | |
| 20260503234522 | 58 | 55 | 2.0 | 3.0 | 0.00 | 0.00 | 0.00 | 49 | |
| 20260503234021 | 57 | 214 | 1.0 | 4.0 | 0.00 | 0.00 | 0.00 | 54 | |
| 20260503233521 | 57 | 225 | 3.0 | 6.0 | 0.00 | 0.00 | 0.00 | 56 | |
| 20260503233020 | 57 | 225 | 4.0 | 6.0 | 0.00 | 0.00 | 0.00 | 57 | |
| 20260503232519 | 58 | 225 | 5.0 | 7.0 | 0.00 | 0.00 | 0.00 | 57 | |
| 20260503232018 | 58 | 195 | 6.0 | 7.0 | 0.00 | 0.00 | 0.00 | 54 | |
| 20260503231517 | 58 | 179 | 5.0 | 7.0 | 0.00 | 0.00 | 0.00 | 50 | |
| 20260503231016 | 59 | 179 | 5.0 | 7.0 | 0.00 | 0.00 | 0.00 | 50 | |
| 20260503225956 | 58 | 137 | 6.0 | 7.0 | 0.00 | 0.00 | 0.00 | 52 | |
| 20260503225455 | 58 | 136 | 5.0 | 6.0 | 0.00 | 0.00 | 0.00 | 62 | |
| 20260503224955 | 58 | 135 | 4.0 | 5.0 | 0.00 | 0.00 | 0.00 | 66 | |
| 20260503224454 | 57 | 132 | 4.0 | 5.0 | 0.00 | 0.00 | 0.00 | 65 | |
| 20260503223953 | 57 | 132 | 4.0 | 4.0 | 0.00 | 0.00 | 0.00 | 67 | |
| 20260503223452 | 57 | 135 | 4.0 | 4.0 | 0.00 | 0.00 | 0.00 | 67 | |
| 20260503222951 | 58 | 134 | 3.0 | 4.0 | 0.00 | 0.00 | 0.00 | 66 | |
| 20260503222450 | 58 | 136 | 4.0 | 4.0 | 0.00 | 0.00 | 0.00 | 65 | |
| 20260503221949 | 58 | 129 | 3.0 | 4.0 | 0.00 | 0.00 | 0.00 | 65 | |
| 20260503221448 | 58 | 126 | 3.0 | 4.0 | 0.00 | 0.00 | 0.00 | 65 | |
| 20260503220947 | 58 | 120 | 2.0 | 4.0 | 0.00 | 0.00 | 0.00 | 64 | |
| 20260503220447 | 58 | 133 | 3.0 | 4.0 | 0.00 | 0.00 | 0.00 | 64 | |
| 20260503215946 | 58 | 118 | 2.0 | 4.0 | 0.00 | 0.00 | 0.00 | 63 | |
| 20260503215445 | 58 | 135 | 3.0 | 4.0 | 0.00 | 0.00 | 0.00 | 63 | |
| 20260503214944 | 58 | 119 | 2.0 | 4.0 | 0.00 | 0.00 | 0.00 | 62 | |
| 20260503214444 | 59 | 115 | 3.0 | 4.0 | 0.00 | 0.00 | 0.00 | 62 | |
| 20260503213943 | 59 | 100 | 3.0 | 4.0 | 0.00 | 0.00 | 0.00 | 62 | |
| 20260503213442 | 58 | 115 | 3.0 | 4.0 | 0.00 | 0.00 | 0.00 | 62 | |
| 20260503212941 | 59 | 116 | 2.0 | 4.0 | 0.00 | 0.00 | 0.00 | 62 | |
| 20260503212440 | 59 | 106 | 3.0 | 4.0 | 0.00 | 0.00 | 0.00 | 62 | |
| 20260503211939 | 58 | 90 | 4.0 | 5.0 | 0.00 | 0.00 | 0.00 | 64 | |
| 20260503211439 | 59 | 90 | 4.0 | 6.0 | 0.00 | 0.00 | 0.00 | 65 | |
| 20260503210938 | 58 | 88 | 5.0 | 6.0 | 0.00 | 0.00 | 0.00 | 66 | |
| 20260503210437 | 58 | 85 | 5.0 | 7.0 | 0.00 | 0.00 | 0.00 | 66 | |
| 20260503205936 | 58 | 74 | 5.0 | 7.0 | 0.00 | 0.00 | 0.00 | 66 | |
| 20260503205435 | 58 | 79 | 6.0 | 8.0 | 0.00 | 0.00 | 0.00 | 66 | |
| 20260503204934 | 58 | 74 | 6.0 | 8.0 | 0.00 | 0.00 | 0.00 | 65 | |
| 20260503204433 | 57 | 72 | 6.0 | 10.0 | 0.00 | 0.00 | 0.00 | 65 | |
| 20260503203933 | 57 | 66 | 6.0 | 10.0 | 0.00 | 0.00 | 0.00 | 65 | |
| 20260503203432 | 57 | 61 | 6.0 | 8.0 | 0.00 | 0.00 | 0.00 | 66 | |
| 20260503202931 | 57 | 61 | 6.0 | 9.0 | 0.00 | 0.00 | 0.00 | 67 | |
| 20260503202430 | 57 | 54 | 7.0 | 9.0 | 0.00 | 0.00 | 0.00 | 67 | |
| 20260503201929 | 57 | 53 | 7.0 | 10.0 | 0.00 | 0.00 | 0.00 | 67 | |
| 20260503201428 | 57 | 53 | 7.0 | 10.0 | 0.00 | 0.00 | 0.00 | 67 | |
| 20260503200927 | 57 | 56 | 7.0 | 9.0 | 0.00 | 0.00 | 0.00 | 66 | |
| 20260503200426 | 57 | 49 | 7.0 | 9.0 | 0.00 | 0.00 | 0.00 | 65 | |
| 20260503195925 | 57 | 51 | 7.0 | 10.0 | 0.00 | 0.00 | 0.00 | 64 | |
| 20260503195424 | 57 | 50 | 8.0 | 10.0 | 0.00 | 0.00 | 0.00 | 64 | |
| 20260503194924 | 57 | 48 | 8.0 | 10.0 | 0.00 | 0.00 | 0.00 | 64 | |
| 20260503194423 | 57 | 46 | 8.0 | 10.0 | 0.00 | 0.00 | 0.00 | 65 | |
| 20260503193922 | 57 | 49 | 9.0 | 10.0 | 0.00 | 0.00 | 0.00 | 66 | |
| 20260503193421 | 57 | 46 | 8.0 | 10.0 | 0.00 | 0.00 | 0.00 | 65 | |
| 20260503192920 | 57 | 47 | 8.0 | 10.0 | 0.00 | 0.00 | 0.00 | 64 | |
| 20260503192419 | 57 | 46 | 8.0 | 11.0 | 0.00 | 0.00 | 0.00 | 63 | |
| 20260503191919 | 57 | 47 | 8.0 | 11.0 | 0.00 | 0.00 | 0.00 | 64 | |
| 20260503191418 | 57 | 49 | 8.0 | 10.0 | 0.00 | 0.00 | 0.00 | 64 | |
| 20260503190917 | 56 | 47 | 7.0 | 10.0 | 0.00 | 0.00 | 0.00 | 65 | |
| 20260503190416 | 56 | 45 | 8.0 | 11.0 | 0.00 | 0.00 | 0.00 | 62 | |
| 20260503185915 | 55 | 44 | 9.0 | 11.0 | 0.00 | 0.00 | 0.00 | 60 | |
| 20260503185414 | 55 | 39 | 8.0 | 10.0 | 0.00 | 0.00 | 0.00 | 61 | |
| 20260503184913 | 55 | 43 | 7.0 | 9.0 | 0.00 | 0.00 | 0.00 | 62 | |
| 20260503184412 | 56 | 44 | 8.0 | 9.0 | 0.00 | 0.00 | 0.00 | 63 | |
| 20260503183911 | 57 | 45 | 8.0 | 9.0 | 0.00 | 0.00 | 0.00 | 63 | |
| 20260503183410 | 57 | 42 | 7.0 | 8.0 | 0.00 | 0.00 | 0.00 | 64 | |
| 20260503182909 | 57 | 45 | 5.0 | 6.0 | 0.00 | 0.00 | 0.00 | 64 | |
| 20260503182409 | 57 | 10 | 3.0 | 4.0 | 0.00 | 0.00 | 0.00 | 64 | |
| 20260503181908 | 57 | 344 | 1.0 | 3.0 | 0.00 | 0.00 | 0.00 | 64 | |
| 20260503181406 | 57 | 339 | 2.0 | 3.0 | 0.00 | 0.00 | 0.00 | 64 | |
| 20260503180905 | 57 | 27 | 2.0 | 3.0 | 0.00 | 0.00 | 0.00 | 64 | |
| 20260503180403 | 57 | 0 | 2.0 | 3.0 | 0.00 | 0.00 | 0.00 | 64 | |
| 20260503175902 | 57 | 0 | 2.0 | 3.0 | 0.00 | 0.00 | 0.00 | 63 | |
| 20260503175401 | 57 | 312 | 1.0 | 2.0 | 0.00 | 0.00 | 0.00 | 62 | |
| 20260503174900 | 58 | 270 | 1.0 | 3.0 | 0.00 | 0.00 | 0.00 | 62 | |
| 20260503174359 | 58 | 270 | 2.0 | 3.0 | 0.00 | 0.00 | 0.00 | 62 | |
| 20260503173859 | 58 | 269 | 2.0 | 4.0 | 0.00 | 0.00 | 0.00 | 62 | |
| 20260503173358 | 58 | 263 | 3.0 | 4.0 | 0.00 | 0.00 | 0.00 | 62 | |
| 20260503172857 | 59 | 257 | 2.0 | 3.0 | 0.00 | 0.00 | 0.00 | 62 | |
| 20260503172356 | 60 | 249 | 2.0 | 3.0 | 0.00 | 0.00 | 0.00 | 61 | |
| 20260503171855 | 61 | 251 | 1.0 | 2.0 | 0.00 | 0.00 | 0.00 | 61 | |
| 20260503171355 | 60 | 131 | 0.0 | 2.0 | 0.00 | 0.00 | 0.00 | 61 | |
| 20260503170854 | 60 | 83 | 1.0 | 2.0 | 0.00 | 0.00 | 0.00 | 61 | |
| 20260503170353 | 61 | 277 | 1.0 | 2.0 | 0.00 | 0.00 | 0.00 | 61 | |
| 20260503150833 | 63 | 161 | 4.0 | 8.0 | 0.00 | 0.00 | 0.00 | 55 | |
| 20260503150332 | 63 | 196 | 3.0 | 7.0 | 0.00 | 0.00 | 0.00 | 54 | |
| 20260503131313 | 61 | 247 | 8.0 | 12.0 | 0.00 | 0.00 | 0.00 | 56 | |
| 20260503130812 | 62 | 242 | 7.0 | 14.0 | 0.00 | 0.00 | 0.00 | 54 | |
| 20260503130311 | 62 | 253 | 7.0 | 14.0 | 0.00 | 0.00 | 0.00 | 53 | |
| 20260503110746 | 65 | 179 | 5.0 | 11.0 | 0.00 | 0.00 | 0.00 | 51 | |
| 20260503110245 | 64 | 273 | 2.0 | 7.0 | 0.00 | 0.00 | 0.00 | 55 | |
| 20260503100235 | 56 | 243 | 10.0 | 16.0 | 0.00 | 0.00 | 0.00 | 68 | |
| 20260503090225 | 60 | 292 | 2.0 | 7.0 | 0.00 | 0.00 | 0.00 | 70 | |
| 20260503081214 | 60 | 274 | 2.0 | 6.0 | 0.00 | 0.00 | 0.00 | 72 | |
| 20260503080713 | 58 | 237 | 2.0 | 6.0 | 0.00 | 0.00 | 0.00 | 73 | |
| 20260503080212 | 58 | 269 | 4.0 | 6.0 | 0.00 | 0.00 | 0.00 | 74 | |
| 20260503072701 | 55 | 270 | 5.0 | 7.0 | 0.00 | 0.00 | 0.00 | 75 | |
| 20260503072200 | 54 | 269 | 5.0 | 6.0 | 0.00 | 0.00 | 0.00 | 74 | |
| 20260503071659 | 54 | 268 | 4.0 | 6.0 | 0.00 | 0.00 | 0.00 | 72 | |
| 20260503071158 | 54 | 261 | 4.0 | 6.0 | 0.00 | 0.00 | 0.00 | 71 | |
| 20260503070657 | 55 | 281 | 4.0 | 5.0 | 0.00 | 0.00 | 0.00 | 69 | |
| 20260503070154 | 56 | 273 | 3.0 | 4.0 | 0.00 | 0.00 | 0.00 | 67 | |
| 20260503060134 | 56 | 75 | 2.0 | 3.0 | 0.00 | 0.00 | 0.00 | 66 | |
| 20260503054629 | 56 | 105 | 2.0 | 4.0 | 0.00 | 0.00 | 0.00 | 64 | |
| 20260503054128 | 56 | 98 | 3.0 | 4.0 | 0.00 | 0.00 | 0.00 | 62 | |
| 20260503053627 | 56 | 91 | 3.0 | 5.0 | 0.00 | 0.00 | 0.00 | 60 | |
| 20260503053126 | 56 | 95 | 3.0 | 4.0 | 0.00 | 0.00 | 0.00 | 57 | |
| 20260503052651 | 56 | 90 | 4.0 | 4.0 | 0.00 | 0.00 | 0.00 | 57 | |
| 20260503052125 | 56 | 90 | 4.0 | 4.0 | 0.00 | 0.00 | 0.00 | 56 | |
| 20260503051624 | 56 | 90 | 3.0 | 4.0 | 0.00 | 0.00 | 0.00 | 56 | |
| 20260503051123 | 55 | 90 | 3.0 | 4.0 | 0.00 | 0.00 | 0.00 | 55 | |
| 20260503050622 | 56 | 90 | 4.0 | 5.0 | 0.00 | 0.00 | 0.00 | 56 | |
| 20260503050121 | 56 | 90 | 4.0 | 5.0 | 0.00 | 0.00 | 0.00 | 56 | |
| 20260503045621 | 56 | 90 | 4.0 | 5.0 | 0.00 | 0.00 | 0.00 | 55 | |
| 20260503045120 | 55 | 88 | 4.0 | 5.0 | 0.00 | 0.00 | 0.00 | 55 | |
| 20260503044618 | 55 | 86 | 4.0 | 4.0 | 0.00 | 0.00 | 0.00 | 55 | |
| 20260503044117 | 55 | 81 | 3.0 | 6.0 | 0.00 | 0.00 | 0.00 | 55 | |
| 20260503043616 | 55 | 83 | 5.0 | 6.0 | 0.00 | 0.00 | 0.00 | 56 | |
| 20260503043115 | 55 | 89 | 5.0 | 6.0 | 0.00 | 0.00 | 0.00 | 55 | |
| 20260503042614 | 55 | 90 | 5.0 | 6.0 | 0.00 | 0.00 | 0.00 | 55 | |
| 20260503042113 | 55 | 82 | 4.0 | 5.0 | 0.00 | 0.00 | 0.00 | 56 | |
| 20260503041613 | 55 | 47 | 2.0 | 3.0 | 0.00 | 0.00 | 0.00 | 54 | |
| 20260503041112 | 55 | 49 | 1.0 | 3.0 | 0.00 | 0.00 | 0.00 | 54 | |
| 20260503040611 | 55 | 73 | 2.0 | 4.0 | 0.00 | 0.00 | 0.00 | 55 | |
| 20260503040110 | 55 | 89 | 4.0 | 4.0 | 0.00 | 0.00 | 0.00 | 56 | |
| 20260503035609 | 55 | 69 | 4.0 | 4.0 | 0.00 | 0.00 | 0.00 | 57 | |
| 20260503035108 | 54 | 90 | 4.0 | 5.0 | 0.00 | 0.00 | 0.00 | 57 | |
| 20260503034607 | 54 | 88 | 4.0 | 5.0 | 0.00 | 0.00 | 0.00 | 58 | |
| 20260503034104 | 54 | 90 | 3.0 | 4.0 | 0.00 | 0.00 | 0.00 | 58 | |
| 20260503033600 | 54 | 90 | 2.0 | 3.0 | 0.00 | 0.00 | 0.00 | 60 | |
| 20260503033059 | 54 | 52 | 3.0 | 3.0 | 0.00 | 0.00 | 0.00 | 61 | |
| 20260503032556 | 54 | 90 | 1.0 | 2.0 | 0.00 | 0.00 | 0.00 | 63 | |
| 20260503032055 | 53 | 135 | 0.0 | 1.0 | 0.00 | 0.00 | 0.00 | 62 | |
| 20260503031554 | 53 | 135 | 0.0 | 1.0 | 0.00 | 0.00 | 0.00 | 61 | |
| 20260503031052 | 53 | 180 | 1.0 | 2.0 | 0.00 | 0.00 | 0.00 | 61 | |
| 20260503030551 | 54 | 222 | 1.0 | 2.0 | 0.00 | 0.00 | 0.00 | 63 | |
| 20260503030050 | 54 | 222 | 1.0 | 2.0 | 0.00 | 0.00 | 0.00 | 65 | |
| 20260503025550 | 54 | 180 | 1.0 | 2.0 | 0.00 | 0.00 | 0.00 | 63 | |
| 20260503025049 | 53 | 180 | 1.0 | 2.0 | 0.00 | 0.00 | 0.00 | 61 | |
| 20260503024548 | 53 | 180 | 1.0 | 2.0 | 0.00 | 0.00 | 0.00 | 59 | |
| 20260503024047 | 53 | 355 | 0.0 | 1.0 | 0.00 | 0.00 | 0.00 | 60 | |
| 20260503023546 | 53 | 29 | 1.0 | 1.0 | 0.00 | 0.00 | 0.00 | 61 | |
| 20260503023046 | 53 | 45 | 0.0 | 2.0 | 0.00 | 0.00 | 0.00 | 61 | |
| 20260503022544 | 53 | 53 | 0.0 | 2.0 | 0.00 | 0.00 | 0.00 | 61 | |
| 20260503022043 | 54 | 149 | 0.0 | 2.0 | 0.00 | 0.00 | 0.00 | 61 | |
| 20260503021543 | 54 | 180 | 2.0 | 6.0 | 0.00 | 0.00 | 0.00 | 61 | |
| 20260503021042 | 54 | 180 | 4.0 | 6.0 | 0.00 | 0.00 | 0.00 | 62 |